W5XO-8 Weather Reports


Display with metric or nautical units.
time (UTC)temp
F
wind
direction
speed
MPH
gust
MPH
rain 1hr
in
rain 24hr
in
rain mn
in
humidity
%
barometer
mb
20210517104504 68 114 0.0 0.0 0.00 0.00 0.00 98 1006.7
20210517104019 68 115 0.0 0.0 0.00 0.00 0.00 98 1006.7
20210517103518 68 108 0.0 0.0 0.00 0.00 0.00 98 1006.5
20210517103155 68 106 0.0 0.0 0.00 0.00 0.00 98 1006.5
20210517102531 68 107 0.0 0.0 0.00 0.00 0.00 97 1006.5
20210517102035 68 106 0.0 0.0 0.00 0.00 0.00 97 1006.5
20210517101717 68 105 0.0 0.0 0.00 0.00 0.00 97 1006.6
20210517101048 68 104 0.0 0.0 0.00 0.00 0.00 97 1006.6
20210517100516 68 105 0.0 0.0 0.00 0.00 0.00 97 1006.6
20210517100054 68 115 0.0 0.0 0.00 0.00 0.00 97 1006.6
20210517095536 68 117 0.0 0.0 0.00 0.00 0.00 97 1006.6
20210517095040 68 110 0.0 0.0 0.00 0.00 0.00 97 1006.6
20210517094614 68 106 0.0 0.0 0.00 0.00 0.00 97 1006.8
20210517094051 68 109 0.0 0.0 0.00 0.00 0.00 97 1006.8
20210517093553 68 111 0.0 0.0 0.00 0.00 0.00 97 1006.8
20210517093137 68 112 0.0 0.0 0.00 0.00 0.00 97 1006.7
20210517092502 68 111 0.0 0.0 0.00 0.00 0.00 97 1006.7
20210517092036 68 111 0.0 0.0 0.00 0.00 0.00 97 1006.8
20210517091530 68 111 0.0 0.0 0.00 0.00 0.00 97 1006.8
20210517091024 68 165 0.0 0.0 0.00 0.00 0.00 97 1006.8
20210517085502 68 165 0.0 0.0 0.00 0.00 0.00 97 1006.8
20210517085010 68 165 0.0 0.0 0.00 0.00 0.00 97 1006.6
20210517084524 68 158 0.0 0.0 0.00 0.00 0.00 97 1006.6
20210517084027 68 167 0.0 0.0 0.00 0.00 0.00 97 1006.6
20210517083545 68 172 0.0 0.0 0.00 0.00 0.00 97 1006.8
20210517083056 68 165 0.0 0.0 0.00 0.00 0.00 97 1006.8
20210517082541 68 173 0.0 0.0 0.00 0.00 0.00 97 1006.8
20210517082105 68 175 0.0 0.0 0.00 0.00 0.00 97 1006.8
20210517081603 68 176 0.0 0.0 0.00 0.00 0.00 97 1006.8
20210517081054 68 178 0.0 0.0 0.00 0.00 0.00 97 1006.8
20210517080559 68 137 0.0 0.0 0.00 0.00 0.00 97 1006.8
20210517080148 68 136 0.0 0.0 0.00 0.00 0.00 96 1007.2
20210517075544 68 131 0.0 0.0 0.00 0.00 0.00 96 1007.2
20210517075050 68 125 0.0 0.0 0.00 0.00 0.00 96 1007.2
20210517074743 68 138 0.0 0.0 0.00 0.00 0.00 97 1007.2
20210517074058 68 121 0.0 0.0 0.00 0.00 0.00 96 1007.2
20210517073005 68 134 0.0 0.0 0.00 0.00 0.00 97 1007.2
20210517072508 68 127 0.0 0.0 0.00 0.00 0.00 97 1007.2
20210517072016 68 117 0.0 0.0 0.00 0.00 0.00 97 1007.6
20210517071536 68 136 0.0 0.0 0.00 0.00 0.00 97 1007.6
20210517071035 68 132 0.0 0.0 0.00 0.00 0.00 96 1007.6
20210517070554 68 128 0.0 0.0 0.00 0.00 0.00 96 1007.6
20210517070011 68 119 0.0 0.0 0.00 0.00 0.00 96 1007.9
20210517065510 68 107 0.0 0.0 0.00 0.00 0.00 96 1007.9
20210517065013 68 119 0.0 0.0 0.00 0.00 0.00 96 1008.2
20210517064608 68 117 0.0 0.0 0.00 0.00 0.00 96 1008.2
20210517064048 69 117 0.0 0.0 0.00 0.00 0.00 96 1008.2
20210517063537 69 113 0.0 0.0 0.00 0.00 0.00 96 1008.2
20210517063136 69 113 0.0 0.0 0.00 0.00 0.00 96 1008.4
20210517062618 69 115 0.0 0.0 0.00 0.00 0.00 96 1008.4
20210517062029 69 116 0.0 0.0 0.00 0.00 0.00 96 1008.5
20210517061622 69 109 0.0 0.0 0.00 0.00 0.00 96 1008.5
20210517061043 69 113 0.0 0.0 0.00 0.00 0.00 95 1008.5
20210517060510 69 111 0.0 0.0 0.00 0.00 0.00 95 1008.8
20210517060120 69 128 0.0 0.0 0.00 0.00 0.00 96 1008.8
20210517055527 69 128 0.0 0.0 0.00 0.00 0.00 95 1008.8
20210517055032 69 134 0.0 0.0 0.00 0.00 0.00 95 1008.8
20210517054645 69 127 0.0 0.0 0.00 0.00 0.00 95 1008.8
20210517054039 69 128 0.0 0.0 0.00 0.00 0.00 95 1008.8
20210517053552 69 128 0.0 0.0 0.00 0.00 0.00 95 1008.8
20210517053113 69 116 0.0 0.0 0.00 0.00 0.00 95 1008.8
20210517052610 69 118 0.0 0.0 0.00 0.00 0.00 95 1008.8
20210517052058 69 138 0.0 0.0 0.00 0.00 0.00 95 1008.8
20210517051009 69 146 0.0 0.0 0.00 0.00 0.00 95 1008.9
20210517050144 69 122 0.0 0.0 0.00 0.00 0.06 95 1009.0
20210517045552 69 138 0.0 0.0 0.00 0.00 0.06 95 1009.0
20210517045100 69 130 0.0 0.0 0.00 0.00 0.06 95 1009.0
20210517044002 69 128 0.0 0.0 0.00 0.00 0.06 95 1008.8
20210517043528 69 120 0.0 0.0 0.00 0.00 0.06 95 1008.8
20210517043043 69 127 0.0 0.0 0.00 0.00 0.06 94 1008.8
20210517042524 69 109 0.0 0.0 0.00 0.00 0.06 94 1008.8
20210517042016 69 120 0.0 0.0 0.00 0.00 0.06 94 1008.4
20210517041642 69 128 0.0 0.0 0.00 0.00 0.06 94 1008.4
20210517041034 69 129 0.0 0.0 0.00 0.00 0.06 94 1008.4
20210517040506 69 126 0.0 0.0 0.00 0.00 0.06 94 1008.1
20210517040024 69 122 0.0 0.0 0.00 0.00 0.06 94 1008.1
20210517035522 69 132 0.0 0.0 0.00 0.00 0.06 94 1008.1
20210517035032 69 123 0.0 0.0 0.00 0.00 0.06 93 1007.9
20210517034617 69 121 0.0 0.0 0.00 0.00 0.06 93 1007.9
20210517034038 69 123 0.0 0.0 0.00 0.00 0.06 93 1007.9
20210517033607 69 134 0.0 0.0 0.00 0.00 0.06 93 1007.9
20210517033123 69 126 0.0 0.0 0.00 0.00 0.06 92 1007.8
20210517032554 69 123 0.0 0.0 0.00 0.00 0.06 92 1007.8
20210517032057 69 119 0.0 0.0 0.00 0.00 0.06 92 1007.8
20210517031629 70 127 0.0 0.0 0.00 0.00 0.06 92 1007.4
20210517030402 70 111 0.0 0.0 0.00 0.00 0.06 91 1007.3
20210517025559 70 128 1.0 0.0 0.00 0.00 0.06 91 1007.3
20210517025107 70 128 1.0 0.0 0.00 0.00 0.06 91 1007.3
20210517024758 70 123 0.0 0.0 0.00 0.00 0.06 91 1006.9
20210517024010 70 136 1.0 0.0 0.00 0.00 0.06 91 1006.9
20210517023508 70 121 1.0 0.0 0.00 0.00 0.06 91 1006.9
20210517023033 70 129 0.0 0.0 0.00 0.00 0.06 91 1006.9
20210517022524 71 124 0.0 0.0 0.00 0.00 0.06 90 1006.9
20210517022034 71 128 0.0 0.0 0.00 0.00 0.06 90 1006.9
20210517021548 71 121 0.0 0.0 0.00 0.00 0.06 89 1006.9
20210517021036 71 124 0.0 0.0 0.00 0.00 0.06 89 1006.9
20210517020603 71 121 0.0 0.0 0.00 0.00 0.06 89 1006.9
20210517020110 72 130 0.0 0.0 0.00 0.00 0.06 89 1006.9
20210517015518 72 124 0.0 0.0 0.00 0.00 0.06 89 1006.9
20210517015036 72 135 0.0 0.0 0.00 0.00 0.06 89 1006.8
20210517014716 72 130 0.0 0.0 0.00 0.00 0.06 89 1006.8
20210517014044 72 128 0.0 0.0 0.00 0.00 0.06 89 1006.8
20210517013548 72 130 0.0 0.0 0.00 0.00 0.06 89 1006.8
20210517013132 72 126 0.0 0.0 0.00 0.00 0.06 88 1006.8
20210517012631 73 121 0.0 0.0 0.00 0.00 0.06 88 1006.8
20210517011506 73 120 0.0 0.0 0.00 0.00 0.06 87 1006.8
20210517011010 73 119 0.0 0.0 0.00 0.00 0.06 87 1006.8
20210517010207 74 123 0.0 0.0 0.00 0.00 0.06 86 1007.2
20210517005008 74 119 1.0 0.0 0.00 0.00 0.06 85 1008.1
20210517004532 74 122 1.0 0.0 0.00 0.00 0.06 84 1008.1
20210517004040 75 128 1.0 0.0 0.00 0.00 0.06 84 1008.1
20210517003534 75 123 1.0 0.0 0.00 0.00 0.06 84 1008.1
20210517003139 75 118 1.0 0.0 0.00 0.00 0.06 83 1008.1
20210517002539 75 127 2.0 0.0 0.00 0.00 0.06 82 1008.1
20210517002045 75 119 2.0 0.0 0.00 0.00 0.06 82 1008.1
20210517001614 75 138 1.0 0.0 0.00 0.00 0.06 83 1008.5
20210517001057 75 136 2.0 0.0 0.00 0.00 0.06 84 1008.5
20210517000558 75 138 1.0 0.0 0.00 0.00 0.06 84 1008.5
20210517000124 75 146 0.0 0.0 0.00 0.00 0.06 84 1008.7
20210516235558 75 123 1.0 0.0 0.00 0.00 0.06 84 1008.7
20210516235052 75 126 2.0 0.0 0.00 0.00 0.06 84 1008.7
20210516234650 75 133 2.0 0.0 0.00 0.00 0.06 84 1008.9
20210516234050 75 102 2.0 0.0 0.00 0.00 0.06 83 1008.9
20210516233607 75 125 2.0 0.0 0.00 0.00 0.06 83 1008.9
20210516232504 75 150 2.0 0.0 0.00 0.00 0.06 82 1008.7
20210516232018 75 141 1.0 0.0 0.00 0.00 0.06 82 1008.6
20210516231645 76 166 2.0 0.0 0.00 0.00 0.05 82 1008.6
20210516231037 76 162 3.0 0.0 0.00 0.00 0.05 83 1008.6
20210516230538 75 151 2.0 0.0 0.00 0.00 0.05 83 1008.6
20210516230016 75 157 3.0 0.0 0.00 0.00 0.05 82 1008.8
20210516225514 75 163 5.0 0.0 0.00 0.00 0.05 82 1008.8
20210516225028 76 159 4.0 0.0 0.00 0.00 0.05 81 1009.3
20210516224553 75 161 3.0 0.0 0.00 0.00 0.05 82 1009.3
20210516224034 75 177 4.0 0.0 0.00 0.00 0.05 84 1009.3
20210516223535 76 126 3.0 0.0 0.00 0.00 0.05 83 1009.3
20210516223134 75 140 3.0 0.0 0.00 0.00 0.05 85 1008.4
20210516222618 75 114 5.0 0.0 0.00 0.00 0.05 85 1008.4
20210516222050 75 138 4.0 0.0 0.00 0.00 0.04 86 1008.4
20210516221614 75 136 4.0 0.0 0.00 0.00 0.04 88 1008.9
20210516221100 75 132 3.0 0.0 0.00 0.00 0.04 90 1008.9
20210516220559 74 114 1.0 0.0 0.00 0.00 0.04 91 1008.9
20210516220117 74 103 2.0 0.0 0.00 0.00 0.04 92 1009.0
20210516215544 74 126 1.0 0.0 0.00 0.00 0.04 92 1009.0
20210516215048 74 120 1.0 0.0 0.00 0.00 0.04 92 1009.0
20210516214621 74 133 1.0 0.0 0.00 0.00 0.04 92 1009.2
20210516214109 73 113 0.0 0.0 0.00 0.00 0.04 93 1009.2
20210516213014 73 120 1.0 0.0 0.00 0.00 0.03 94 1008.4
20210516212506 73 118 1.0 0.0 0.00 0.00 0.03 94 1008.4
20210516212019 73 130 1.0 0.0 0.00 0.00 0.03 94 1009.4
20210516211524 73 128 1.0 0.0 0.00 0.00 0.03 95 1009.4
20210516211027 73 124 2.0 0.0 0.00 0.00 0.03 95 1009.4
20210516210514 72 105 2.0 0.0 0.00 0.00 0.03 95 1009.7
20210516210018 72 118 2.0 0.0 0.00 0.00 0.03 95 1009.7
20210516205512 72 165 2.0 0.0 0.00 0.00 0.03 95 1009.7
20210516205023 72 127 1.0 0.0 0.00 0.00 0.03 95 1010.3
20210516204545 73 139 0.0 0.0 0.00 0.00 0.03 95 1010.3
20210516204034 72 153 0.0 0.0 0.00 0.00 0.02 95 1010.3
20210516203606 72 128 0.0 0.0 0.00 0.00 0.02 95 1010.3
20210516203044 72 130 0.0 0.0 0.00 0.00 0.02 94 1010.0
20210516202548 72 144 0.0 0.0 0.00 0.00 0.02 94 1010.0
20210516202054 72 117 0.0 0.0 0.00 0.00 0.02 94 1010.0
20210516201703 72 160 0.0 0.0 0.00 0.00 0.02 93 1010.8
20210516200153 72 163 0.0 0.0 0.00 0.00 0.02 93 1011.1
20210516195617 72 171 0.0 0.0 0.00 0.00 0.02 92 1011.1
20210516195002 72 157 0.0 0.0 0.00 0.00 0.02 92 1011.2
20210516194515 73 168 0.0 0.0 0.00 0.00 0.02 91 1011.2
20210516194022 73 162 0.0 0.0 0.00 0.00 0.02 91 1011.2
20210516193533 73 163 1.0 0.0 0.00 0.00 0.02 89 1011.0
20210516193137 73 185 2.0 0.0 0.00 0.00 0.02 88 1011.0
20210516192550 73 152 3.0 0.0 0.00 0.00 0.02 87 1011.0
20210516192043 74 158 4.0 0.0 0.00 0.00 0.02 86 1011.0
20210516191637 74 165 4.0 0.0 0.00 0.00 0.02 85 1009.9
20210516191101 74 165 4.0 0.0 0.00 0.00 0.02 85 1009.9
20210516190553 75 141 7.0 0.0 0.00 0.00 0.02 84 1009.9
20210516190053 75 141 7.0 0.0 0.00 0.00 0.02 83 1009.6
20210516185541 75 108 6.0 0.0 0.00 0.00 0.02 83 1009.6
20210516185047 75 123 5.0 0.0 0.00 0.00 0.02 83 1009.6
20210516184626 75 163 7.0 0.0 0.00 0.00 0.02 83 1010.7
20210516184110 75 155 10.0 0.0 0.00 0.00 0.02 82 1010.7
20210516183605 75 168 9.0 0.0 0.00 0.00 0.02 81 1010.7
20210516182508 75 132 9.0 0.0 0.00 0.00 0.02 84 1009.9
20210516182007 75 122 7.0 0.0 0.00 0.00 0.02 84 1009.9
20210516181532 75 143 6.0 0.0 0.00 0.00 0.02 86 1009.9
20210516181040 75 146 10.0 0.0 0.00 0.00 0.02 87 1009.9
20210516180004 75 122 11.0 0.0 0.00 0.00 0.02 87 1010.2
20210516175520 75 167 10.0 0.0 0.00 0.00 0.02 88 1010.2
20210516175034 75 118 9.0 0.0 0.00 0.00 0.02 88 1010.4
20210516174547 75 130 9.0 0.0 0.00 0.00 0.02 89 1010.4
20210516174029 75 130 8.0 0.0 0.00 0.00 0.02 89 1010.4
20210516173544 74 121 7.0 0.0 0.00 0.00 0.02 90 1010.4
20210516173138 74 137 7.0 0.0 0.00 0.00 0.02 91 1010.4
20210516172541 74 126 6.0 0.0 0.00 0.00 0.02 92 1010.4
20210516172046 74 126 3.0 0.0 0.00 0.00 0.01 93 1010.4
20210516171632 73 132 2.0 0.0 0.00 0.00 0.01 93 1010.6
20210516171054 73 133 4.0 0.0 0.00 0.00 0.01 93 1010.6
20210516170647 73 135 4.0 0.0 0.00 0.00 0.01 93 1010.6
20210516170129 73 113 4.0 0.0 0.00 0.00 0.01 92 1011.0
20210516165548 73 130 3.0 0.0 0.00 0.00 0.01 91 1011.0
20210516165051 74 117 2.0 0.0 0.00 0.00 0.01 91 1011.0
20210516164635 73 148 3.0 0.0 0.00 0.00 0.01 90 1011.0
20210516164058 73 132 4.0 0.0 0.00 0.00 0.01 90 1011.0
20210516163004 74 126 8.0 0.0 0.00 0.00 0.01 90 1010.9
20210516162513 73 145 6.0 0.0 0.00 0.00 0.01 90 1010.9
20210516162012 73 159 3.0 0.0 0.00 0.00 0.01 90 1010.9
20210516161540 73 132 2.0 0.0 0.00 0.00 0.01 90 1010.9
20210516161033 73 129 3.0 0.0 0.00 0.00 0.01 90 1010.9
20210516160502 74 138 3.0 0.0 0.00 0.00 0.01 90 1010.7
20210516160006 74 144 3.0 0.0 0.00 0.00 0.01 90 1010.7
20210516155510 74 131 3.0 0.0 0.00 0.00 0.01 90 1010.7
20210516155019 74 142 3.0 0.0 0.00 0.00 0.01 89 1010.7
20210516154600 74 141 1.0 0.0 0.00 0.00 0.01 90 1010.7
20210516154031 74 184 2.0 0.0 0.00 0.00 0.01 91 1010.7
20210516153554 74 130 2.0 0.0 0.00 0.00 0.01 92 1010.7
20210516153056 73 146 2.0 0.0 0.00 0.00 0.01 92 1010.7
20210516152558 73 156 2.0 0.0 0.00 0.00 0.01 92 1010.7
20210516152036 73 171 6.0 0.0 0.00 0.00 0.01 92 1010.7
20210516151638 73 121 8.0 0.0 0.00 0.00 0.01 92 1010.4
20210516151041 73 117 6.0 0.0 0.00 0.00 0.01 94 1010.4
20210516150517 72 116 7.0 0.0 0.00 0.00 0.01 94 1010.5
20210516150018 72 125 7.0 0.0 0.00 0.00 0.01 95 1010.5
20210516145533 72 124 5.0 0.0 0.00 0.00 0.01 95 1010.5
20210516145045 71 108 4.0 0.0 0.00 0.00 0.01 96 1011.0
20210516144613 71 123 3.0 0.0 0.00 0.00 0.01 96 1011.0
20210516144040 71 124 3.0 0.0 0.00 0.00 0.01 96 1011.0
20210516143542 71 118 3.0 0.0 0.00 0.00 0.01 96 1011.0
20210516143114 71 131 2.0 0.0 0.00 0.00 0.01 96 1010.9
20210516142605 70 108 2.0 0.0 0.00 0.00 0.01 96 1010.9
20210516142107 70 129 3.0 0.0 0.00 0.00 0.01 96 1010.9
20210516140125 70 115 5.0 0.0 0.00 0.00 0.01 97 1010.8
20210516135551 70 129 6.0 0.0 0.00 0.00 0.01 96 1010.8
20210516135058 70 144 5.0 0.0 0.00 0.00 0.01 96 1010.8
20210516134620 70 131 5.0 0.0 0.00 0.00 0.01 96 1010.6
20210516134001 70 115 6.0 0.0 0.00 0.00 0.01 96 1010.6
20210516133516 70 119 6.0 0.0 0.00 0.00 0.01 97 1010.8
20210516133031 69 121 6.0 0.0 0.00 0.00 0.01 97 1010.8
20210516132524 69 119 6.0 0.0 0.00 0.00 0.01 97 1010.8
20210516132030 69 117 7.0 0.0 0.00 0.00 0.01 97 1010.8
20210516131546 69 135 9.0 0.0 0.00 0.00 0.01 96 1010.8
20210516131037 69 131 8.0 0.0 0.00 0.00 0.00 97 1010.8
20210516130509 69 130 6.0 0.0 0.00 0.00 0.00 97 1010.6
20210516130034 69 132 5.0 0.0 0.00 0.00 0.00 97 1010.6
20210516125529 69 120 3.0 0.0 0.00 0.00 0.00 96 1010.6
20210516125033 69 95 2.0 0.0 0.00 0.00 0.00 96 1010.6
20210516124553 69 111 2.0 0.0 0.00 0.00 0.00 97 1010.5
20210516124050 69 126 1.0 0.0 0.00 0.00 0.00 96 1010.5
20210516123549 69 111 2.0 0.0 0.00 0.00 0.00 96 1010.5
20210516123120 69 123 2.0 0.0 0.00 0.00 0.00 96 1010.5
20210516122613 69 144 3.0 0.0 0.00 0.00 0.00 96 1010.5
20210516122100 68 104 3.0 0.0 0.00 0.00 0.00 96 1010.5
20210516121502 68 123 3.0 0.0 0.00 0.00 0.00 96 1010.4
20210516121012 68 107 3.0 0.0 0.00 0.00 0.00 96 1010.4
20210516120145 68 117 4.0 0.0 0.00 0.00 0.00 96 1010.4
20210516115003 68 119 3.0 0.0 0.00 0.00 0.00 96 1010.2
20210516114525 68 119 2.0 0.0 0.00 0.00 0.00 96 1010.2
20210516114027 68 112 2.0 0.0 0.00 0.00 0.00 96 1010.2
20210516113530 68 110 1.0 0.0 0.00 0.00 0.00 96 1010.2
20210516113238 68 117 2.0 0.0 0.00 0.00 0.00 96 1010.2
20210516112544 68 130 2.0 0.0 0.00 0.00 0.00 96 1010.2
20210516112043 68 122 3.0 0.0 0.00 0.00 0.00 96 1010.2
20210516111559 68 116 3.0 0.0 0.00 0.00 0.00 96 1010.4
20210516111057 68 123 1.0 0.0 0.00 0.00 0.00 96 1010.4
20210516110124 68 122 1.0 0.0 0.00 0.00 0.00 96 1010.4
20210516105545 68 117 1.0 0.0 0.00 0.00 0.00 96 1010.4